[[{"header":{"parameterUnit":"m.s-1","parameterCategory":2,"la1":30.2991,"la2":30.254,"lo1":-89.0895,"lo2":-89.0444,"dy":0.0017,"dx":0.0017,"nx":28,"ny":28,"refTime":"2023-10-18T21:00:00:Z","depth":"0","parameterNumber":2,"parameterNumberName":"U-component_of_CURRENTS"},"data":[0,0,0,0,0,0,0,0,0,0,0,0,0,0,0,0,0,0,0,0,0,0,0,0,0,0,0,0,0,0,0,0,0,0,0,0,0,0,0,0,0,0,0,0,0,0,0,0,0,0,0,0,0,0,0,0,0,0,-0.3684,-0.3684,0,-0.3687,-0.3687,-0.3686,-0.3553,-0.355,-0.3547,-0.3544,-0.3362,-0.336,-0.3358,0,0,0,0,0,0,0,0,0,0,0,0,0,-0.3486,-0.3491,-0.3684,-0.3684,-0.3685,-0.3687,-0.3687,-0.3686,-0.3554,-0.355,-0.3546,-0.3542,-0.3363,-0.336,-0.3358,0,0,0,0,0,0,0,0,0,0,0,0,0,-0.3535,-0.3492,-0.3684,-0.3622,-0.3617,-0.3687,-0.3687,-0.3686,-0.3554,-0.355,-0.3545,-0.3541,-0.3363,-0.336,-0.3358,-0.3433,0,0,-0.3349,-0.3347,0,0,0,0,0,0,0,0,-0.3532,-0.3542,-0.3631,-0.3627,-0.3621,-0.3619,-0.3551,-0.3594,-0.3556,-0.3573,-0.3544,-0.3538,-0.3437,-0.3428,-0.3435,-0.3424,-0.3417,-0.3348,-0.3347,-0.3345,-0.3345,0,0,0,0,0,0,0,-0.3529,-0.354,-0.368,-0.3632,-0.3626,-0.3569,-0.3571,-0.3558,-0.3524,-0.3571,-0.3563,-0.3572,-0.3432,-0.3438,-0.3429,-0.3414,-0.3348,-0.3346,-0.3344,-0.3343,-0.3446,-0.3451,0,0,0,0,0,0,-0.3549,-0.3539,-0.368,-0.3681,-0.357,-0.3577,-0.3579,-0.3621,-0.3528,-0.3513,-0.3576,-0.3566,-0.3446,-0.3433,-0.3422,-0.3432,-0.3345,-0.3343,-0.3341,-0.3442,-0.3447,-0.3452,0,0,0,0,0,0,-0.3546,-0.3563,-0.368,-0.361,-0.3622,-0.3586,-0.3634,-0.3623,-0.3615,-0.3535,-0.3513,-0.3577,-0.3441,-0.3426,-0.3432,-0.3425,-0.3341,-0.3339,-0.3437,-0.3444,-0.345,-0.3498,0,0,0,0,0,0,-0.3541,-0.3563,-0.3598,-0.3614,-0.3627,-0.3722,-0.3638,-0.3627,-0.3631,-0.3617,-0.353,-0.3508,-0.3436,-0.3437,-0.3429,-0.342,-0.3336,-0.3431,-0.344,-0.3448,-0.349,-0.3505,-0.3518,0,0,0,0,0,-0.3534,-0.3613,-0.3601,-0.3617,-0.3679,-0.3725,-0.3726,-0.3679,-0.3636,-0.365,-0.3607,-0.351,-0.3484,-0.3439,-0.3428,-0.3418,-0.3427,-0.3437,-0.3447,-0.3484,-0.3502,-0.3518,0,0,0,0,0,0,-0.3546,-0.3608,-0.3594,-0.3686,-0.37,-0.3703,-0.3724,-0.3699,-0.3683,-0.3671,-0.3571,-0.3551,-0.3556,-0.352,-0.3473,-0.3488,-0.3439,-0.3448,-0.3472,-0.3488,-0.3501,-0.3448,-0.3334,0,0,0,0,0,-0.3572,-0.3644,-0.3672,-0.3743,-0.3756,-0.3744,-0.3756,-0.3741,-0.3733,-0.3719,-0.3662,-0.3624,-0.3602,-0.3568,-0.3559,-0.3568,-0.3469,-0.3564,-0.3578,-0.3588,-0.3549,-0.34,-0.3392,-0.3486,-0.3485,-0.3485,0,0,-0.3598,-0.3641,-0.368,-0.3749,-0.3754,-0.3781,-0.3737,-0.3785,-0.3784,-0.3707,-0.3696,-0.368,-0.3629,-0.3632,-0.3629,-0.3583,-0.3532,-0.3601,-0.3609,-0.3563,-0.3409,-0.3398,-0.3388,-0.3492,-0.3491,-0.349,0,0,-0.3659,-0.3723,-0.3773,-0.38,-0.3837,-0.384,-0.3857,-0.3874,-0.3851,-0.3876,-0.3816,-0.3798,-0.3776,-0.3715,-0.3684,-0.3782,-0.3628,-0.38,-0.3782,-0.364,-0.3627,-0.3614,-0.3536,-0.3516,-0.378,-0.378,-0.378,0,-0.3668,-0.3722,-0.3792,-0.3831,-0.3819,-0.3864,-0.386,-0.3899,-0.3911,-0.3862,-0.3878,-0.381,-0.3797,-0.3718,-0.3774,-0.3794,-0.3709,-0.3705,-0.3643,-0.3629,-0.3614,-0.3536,-0.3513,-0.3783,-0.3783,-0.3783,-0.3782,0,-0.3741,-0.3766,-0.3803,-0.3847,-0.3873,-0.3895,-0.3935,-0.3955,-0.3943,-0.3925,-0.3877,-0.3877,-0.3786,-0.3829,-0.3832,-0.3742,-0.3718,-0.3685,-0.3568,-0.3605,-0.3526,-0.35,-0.3788,-0.3787,-0.3786,-0.3785,0,0,-0.3744,-0.382,-0.3815,-0.378,-0.3855,-0.3866,-0.3906,-0.3874,-0.3824,-0.3876,-0.3751,-0.3806,-0.3768,-0.3739,-0.3734,-0.3662,-0.3561,-0.3644,-0.3635,-0.3509,-0.3269,-0.3213,-0.318,-0.3486,-0.3481,-0.3477,-0.3272,0,-0.3714,-0.3731,-0.3788,-0.3765,-0.3743,-0.3785,-0.3792,-0.3803,-0.3788,-0.3724,-0.3713,-0.3654,-0.3743,-0.3693,-0.3635,-0.3576,-0.3486,-0.3622,-0.3301,-0.3293,-0.3186,-0.3144,-0.3036,-0.2837,-0.3246,-0.3241,-0.3238,0,-0.3706,-0.3696,-0.3643,-0.3618,-0.3612,-0.3624,-0.3548,-0.3571,-0.3545,-0.3534,-0.3475,-0.3468,-0.3413,-0.3476,-0.3323,-0.3396,-0.3331,-0.3298,-0.3287,-0.3177,-0.3184,-0.2862,-0.2773,-0.2773,-0.3197,-0.32,-0.3203,0,-0.3561,-0.3577,-0.3489,-0.3491,-0.3507,-0.346,-0.3473,-0.3467,-0.3429,-0.3389,-0.3336,-0.3271,-0.3215,-0.3126,-0.3132,-0.3182,-0.2946,-0.2978,-0.2859,-0.2857,-0.267,-0.2659,-0.2475,-0.28,-0.28,-0.2801,-0.2801,0,-0.3453,-0.3391,-0.341,-0.3355,-0.3242,-0.3328,-0.3209,-0.3235,-0.3218,-0.3154,-0.3206,-0.313,-0.3118,-0.3018,-0.3015,-0.286,-0.2823,-0.2816,-0.2764,-0.2702,-0.2696,-0.2612,-0.2677,-0.2793,-0.2795,-0.2796,-0.2798,0,-0.3275,-0.3306,-0.3192,-0.3165,-0.3156,-0.3069,-0.3065,-0.3017,-0.3046,-0.2953,-0.2939,-0.2956,-0.2857,-0.2835,-0.2697,-0.2682,-0.2516,-0.2514,-0.2491,-0.244,-0.2335,-0.241,-0.2158,-0.2096,-0.2309,-0.2306,-0.2303,0,-0.3166,-0.3087,-0.3003,-0.2949,-0.2918,-0.2847,-0.2824,-0.2891,-0.287,-0.2853,-0.2804,-0.2711,-0.2647,-0.2457,-0.2393,-0.2277,-0.2344,-0.2129,-0.2201,-0.2267,-0.2311,-0.2387,-0.236,-0.2007,-0.2003,-0.1999,-0.1995,0,-0.2919,-0.2891,-0.2809,-0.2703,-0.2651,-0.2585,-0.2579,-0.2548,-0.2639,-0.259,-0.2543,-0.2484,-0.2343,-0.2197,-0.2083,-0.2019,-0.2092,-0.2042,-0.2057,-0.2,-0.211,-0.2048,-0.2282,-0.196,-0.1963,-0.1966,-0.1968,-0.1969,-0.2717,-0.2626,-0.2561,-0.2431,-0.241,-0.2366,-0.2227,-0.2293,-0.2237,-0.2126,-0.2273,-0.2116,-0.2082,-0.1899,-0.1833,-0.1702,-0.1798,-0.1672,-0.1743,-0.1803,-0.1769,-0.1969,-0.1631,-0.1632,-0.1633,-0.1635,-0.1636,0,-0.2434,-0.2423,-0.2326,-0.2207,-0.2096,-0.2147,-0.2087,-0.1932,-0.1818,-0.1786,-0.1721,-0.1726,-0.1637,-0.1607,-0.1544,-0.1458,-0.1444,-0.1427,-0.15,-0.1474,-0.156,-0.1574,-0.1268,-0.1269,-0.1269,-0.1269,-0.1269,-0.1269,-0.2295,-0.2163,-0.2132,-0.1914,-0.1841,-0.1614,-0.151,-0.1374,-0.1273,-0.1098,-0.1047,-0.1031,-0.1272,-0.1553,-0.1493,-0.1401,-0.1398,-0.1326,-0.1382,-0.148,-0.151,-0.1538,-0.1563,-0.126,-0.126,-0.122,-0.122,-0.122]},{"header":{"parameterUnit":"m.s-1","parameterCategory":2,"la1":30.2991,"la2":30.254,"lo1":-89.0895,"lo2":-89.0444,"dy":0.0017,"dx":0.0017,"nx":28,"ny":28,"refTime":"2023-10-18T21:00:00:Z","depth":"0","parameterNumber":3,"parameterNumberName":"V-component_of_CURRENTS"},"data":[0,0,0,0,0,0,0,0,0,0,0,0,0,0,0,0,0,0,0,0,0,0,0,0,0,0,0,0,0,0,0,0,0,0,0,0,0,0,0,0,0,0,0,0,0,0,0,0,0,0,0,0,0,0,0,0,0,0,0.0818,0.0819,0,0.0923,0.0924,0.0925,0.1005,0.1006,0.1007,0.1008,0.1169,0.1173,0.1176,0,0,0,0,0,0,0,0,0,0,0,0,0,0.0749,0.075,0.0818,0.0819,0.0821,0.0923,0.0924,0.0925,0.1005,0.1006,0.1007,0.1008,0.1168,0.1172,0.1176,0,0,0,0,0,0,0,0,0,0,0,0,0,0.0807,0.075,0.0817,0.0874,0.088,0.0923,0.0924,0.0926,0.1005,0.1006,0.1008,0.1009,0.1167,0.1172,0.1177,0.1182,0,0,0.1193,0.1195,0,0,0,0,0,0,0,0,0.0804,0.0809,0.0864,0.087,0.0877,0.0954,0.0959,0.1015,0.1005,0.0956,0.1008,0.101,0.1103,0.1113,0.1127,0.1189,0.1196,0.1193,0.1196,0.1199,0.12,0,0,0,0,0,0,0,0.08,0.0806,0.0858,0.0866,0.0874,0.0916,0.0925,0.097,0.102,0.096,0.0967,0.0981,0.1107,0.1121,0.1131,0.1199,0.1193,0.1198,0.1201,0.1203,0.1255,0.1253,0,0,0,0,0,0,0.0785,0.0801,0.0854,0.0861,0.0845,0.0916,0.0926,0.0927,0.1019,0.1034,0.0979,0.0984,0.1112,0.1125,0.1137,0.1115,0.1199,0.1203,0.1206,0.1257,0.1255,0.1253,0,0,0,0,0,0,0.0783,0.0788,0.085,0.0836,0.0847,0.0915,0.0916,0.0928,0.0944,0.1033,0.1049,0.0983,0.1113,0.113,0.1159,0.1124,0.1206,0.121,0.1259,0.1256,0.1254,0.1093,0,0,0,0,0,0,0.078,0.0786,0.0769,0.0834,0.0847,0.0841,0.0915,0.0929,0.0951,0.0958,0.1041,0.1058,0.1116,0.115,0.1164,0.1132,0.1214,0.1261,0.1257,0.1254,0.1101,0.1085,0.1072,0,0,0,0,0,0.0777,0.0734,0.0767,0.0773,0.0825,0.0839,0.0847,0.0902,0.095,0.0927,0.0994,0.1055,0.114,0.1153,0.1169,0.1138,0.1262,0.1258,0.1255,0.1107,0.1088,0.1073,0,0,0,0,0,0,0.0679,0.0741,0.0778,0.0753,0.0784,0.0853,0.0832,0.0891,0.0927,0.0935,0.1036,0.1054,0.1062,0.1122,0.1135,0.1143,0.121,0.1209,0.1092,0.1076,0.1062,0.1075,0.1219,0,0,0,0,0,0.0654,0.0643,0.071,0.0683,0.0692,0.0766,0.0779,0.082,0.087,0.0887,0.0951,0.1015,0.1057,0.1084,0.1123,0.1133,0.1179,0.1123,0.1109,0.1097,0.1117,0.114,0.1129,0.124,0.124,0.124,0,0,0.0605,0.0639,0.0631,0.0663,0.0689,0.0682,0.0774,0.0772,0.078,0.0899,0.0906,0.0961,0.1047,0.1048,0.1059,0.1097,0.1079,0.1092,0.108,0.1109,0.1134,0.1124,0.1114,0.1237,0.1238,0.1238,0,0,0.0485,0.0531,0.0475,0.0503,0.0539,0.0597,0.0595,0.0656,0.0688,0.0707,0.0793,0.0834,0.0894,0.095,0.0991,0.0927,0.0996,0.0929,0.0879,0.0897,0.0889,0.0882,0.0878,0.0873,0.093,0.093,0.0929,0,0.0419,0.0382,0.0456,0.0419,0.0441,0.0555,0.0516,0.0561,0.0627,0.0658,0.0682,0.0791,0.0852,0.0897,0.0874,0.0896,0.0912,0.0932,0.0878,0.0873,0.0869,0.0868,0.0864,0.0922,0.0922,0.0923,0.0924,0,0.027,0.0251,0.0216,0.023,0.0258,0.0239,0.0334,0.0363,0.0434,0.0498,0.0544,0.0627,0.0704,0.0716,0.0782,0.0787,0.0804,0.0846,0.0918,0.0848,0.0851,0.0849,0.091,0.0913,0.0915,0.0917,0,0,0.0103,0.0109,0.0097,0.0098,0.0169,0.0182,0.0204,0.0268,0.0295,0.0364,0.0383,0.0477,0.0548,0.0601,0.068,0.0712,0.0676,0.0762,0.0767,0.0753,0.0692,0.0762,0.0768,0.0699,0.0699,0.0699,0.0688,0,-0.0036,-0.0133,-0.0077,-0.0125,-0.0145,-0.0009,0.0015,0.0101,0.0178,0.0217,0.0341,0.0379,0.0497,0.0517,0.057,0.0644,0.0673,0.0674,0.0771,0.0774,0.084,0.077,0.0828,0.083,0.0688,0.0687,0.0687,0,-0.0196,-0.0219,-0.0312,-0.0252,-0.025,-0.0247,-0.0145,-0.0114,0.0,0.0057,0.0147,0.0236,0.0316,0.0402,0.0527,0.0516,0.0601,0.0667,0.0668,0.0804,0.0843,0.0889,0.0834,0.1012,0.0686,0.0686,0.0686,0,-0.0322,-0.0366,-0.0433,-0.0421,-0.0356,-0.0346,-0.0289,-0.0171,-0.0137,-0.0053,-0.0035,0.0092,0.0136,0.0258,0.0447,0.0458,0.057,0.0594,0.0744,0.0748,0.086,0.0876,0.0997,0.0683,0.0683,0.0683,0.0683,0,-0.0462,-0.0503,-0.0501,-0.0526,-0.0557,-0.0463,-0.0467,-0.0381,-0.0304,-0.0264,-0.0131,-0.0077,0.0105,0.0218,0.0374,0.0564,0.0518,0.0733,0.0756,0.0801,0.081,0.1025,0.1105,0.0682,0.0682,0.0682,0.0683,0,-0.0579,-0.0596,-0.0652,-0.063,-0.0624,-0.0638,-0.0572,-0.056,-0.0472,-0.0432,-0.0414,-0.024,-0.0074,0.0127,0.0317,0.0471,0.0753,0.0728,0.0764,0.0794,0.1079,0.1146,0.1297,0.1413,0.0836,0.0837,0.0839,0,-0.0631,-0.0691,-0.0737,-0.0764,-0.0761,-0.0765,-0.0751,-0.0657,-0.0628,-0.0494,-0.0479,-0.0323,-0.0142,0.0153,0.0432,0.0685,0.085,0.0879,0.0936,0.1107,0.1198,0.1233,0.1322,0.0989,0.0991,0.0993,0.0995,0,-0.0689,-0.0735,-0.0782,-0.0853,-0.0876,-0.0894,-0.0864,-0.0856,-0.0723,-0.0616,-0.0454,-0.0318,-0.0046,0.0299,0.0624,0.0783,0.1017,0.0931,0.1104,0.1333,0.1386,0.1504,0.0963,0.1014,0.1012,0.1011,0.101,0.1009,-0.0689,-0.075,-0.0819,-0.0871,-0.0926,-0.0932,-0.0864,-0.0804,-0.067,-0.0384,-0.0361,-0.0009,0.0237,0.072,0.09,0.127,0.1211,0.138,0.1439,0.1453,0.1607,0.1106,0.1198,0.1197,0.1196,0.1196,0.1195,0,-0.0587,-0.0681,-0.0787,-0.0817,-0.0846,-0.0887,-0.0843,-0.0717,-0.0459,-0.023,0.0037,0.0502,0.0883,0.1158,0.1575,0.1774,0.1826,0.1857,0.1929,0.1993,0.1547,0.1601,0.1792,0.1792,0.1792,0.1792,0.1791,0.1791,-0.0525,-0.0577,-0.0654,-0.0669,-0.0702,-0.0616,-0.0544,-0.0395,-0.0209,0.0287,0.0696,0.0917,0.1225,0.1804,0.2207,0.2238,0.2439,0.2392,0.25,0.2207,0.2167,0.2129,0.2201,0.2514,0.2515,0.2944,0.2948,0.2951]}],[{"header":{"parameterUnit":"m.s-1","parameterCategory":2,"la1":30.2991,"la2":30.254,"lo1":-89.0895,"lo2":-89.0444,"dy":0.0017,"dx":0.0017,"nx":28,"ny":28,"refTime":"2023-10-18T21:00:00:Z","depth":"2","parameterNumber":2,"parameterNumberName":"U-component_of_CURRENTS"},"data":[0,0,0,0,0,0,0,0,0,0,0,0,0,0,0,0,0,0,0,0,0,0,0,0,0,0,0,0,0,0,0,0,0,0,0,0,0,0,0,0,0,0,0,0,0,0,0,0,0,0,0,0,0,0,0,0,0,0,-0.2457,-0.2459,0,-0.26,-0.2601,-0.2603,-0.2576,-0.2574,-0.2571,-0.2569,-0.2765,-0.2772,-0.278,0,0,0,0,0,0,0,0,0,0,0,0,0,-0.2303,-0.2305,-0.2457,-0.2459,-0.2461,-0.2599,-0.2601,-0.2603,-0.2577,-0.2573,-0.257,-0.2567,-0.2762,-0.2771,-0.278,0,0,0,0,0,0,0,0,0,0,0,0,0,-0.24,-0.2306,-0.2457,-0.2464,-0.2466,-0.2599,-0.2601,-0.2604,-0.2577,-0.2573,-0.257,-0.2566,-0.2759,-0.277,-0.2782,-0.2929,0,0,-0.2817,-0.2821,0,0,0,0,0,0,0,0,-0.2394,-0.2406,-0.2461,-0.2464,-0.2466,-0.2566,-0.2619,-0.2715,-0.2578,-0.2535,-0.2569,-0.2564,-0.2706,-0.2722,-0.2756,-0.2938,-0.2946,-0.2818,-0.2824,-0.2829,-0.2833,0,0,0,0,0,0,0,-0.2387,-0.24,-0.2514,-0.2464,-0.2467,-0.2508,-0.2517,-0.2637,-0.2642,-0.2539,-0.2537,-0.2554,-0.2707,-0.2745,-0.2761,-0.2949,-0.2817,-0.2827,-0.2834,-0.2839,-0.3176,-0.3178,0,0,0,0,0,0,-0.2367,-0.2394,-0.2509,-0.2518,-0.242,-0.2514,-0.2523,-0.2538,-0.2639,-0.265,-0.2557,-0.2552,-0.2728,-0.2748,-0.2768,-0.2904,-0.2829,-0.284,-0.2847,-0.3174,-0.3177,-0.3179,0,0,0,0,0,0,-0.2363,-0.2376,-0.2503,-0.2459,-0.2477,-0.2519,-0.2537,-0.2543,-0.2594,-0.2652,-0.2664,-0.2602,-0.2726,-0.2752,-0.2885,-0.2913,-0.2845,-0.2855,-0.3172,-0.3175,-0.3178,-0.3206,0,0,0,0,0,0,-0.2358,-0.2374,-0.2393,-0.2457,-0.2479,-0.2584,-0.2541,-0.2548,-0.2609,-0.2604,-0.2697,-0.2709,-0.2725,-0.2868,-0.2896,-0.2927,-0.2864,-0.3169,-0.3173,-0.3177,-0.3203,-0.321,-0.3216,0,0,0,0,0,-0.2352,-0.2384,-0.2393,-0.2408,-0.2498,-0.2586,-0.2603,-0.2619,-0.2615,-0.2649,-0.2711,-0.2706,-0.291,-0.2881,-0.2913,-0.2948,-0.3167,-0.3172,-0.3177,-0.32,-0.3208,-0.3216,0,0,0,0,0,0,-0.2326,-0.2387,-0.2397,-0.2445,-0.2513,-0.2581,-0.2623,-0.265,-0.2731,-0.2738,-0.2777,-0.2797,-0.2912,-0.2946,-0.2912,-0.3052,-0.3024,-0.3035,-0.303,-0.3039,-0.3046,-0.2956,-0.2874,0,0,0,0,0,-0.2334,-0.2358,-0.244,-0.2472,-0.2519,-0.2586,-0.263,-0.2656,-0.2729,-0.276,-0.2825,-0.2892,-0.2963,-0.3011,-0.3086,-0.3206,-0.314,-0.3235,-0.3242,-0.3248,-0.3196,-0.3108,-0.3099,-0.3195,-0.3195,-0.3195,0,0,-0.2304,-0.2364,-0.236,-0.2467,-0.2525,-0.2604,-0.2603,-0.2689,-0.2736,-0.278,-0.2882,-0.2945,-0.3004,-0.3102,-0.3154,-0.3133,-0.3201,-0.3254,-0.3258,-0.3201,-0.3111,-0.3101,-0.3091,-0.3198,-0.3198,-0.3197,0,0,-0.2316,-0.2351,-0.2402,-0.2472,-0.2588,-0.2634,-0.2668,-0.2776,-0.2805,-0.2932,-0.2946,-0.3014,-0.3167,-0.3173,-0.3202,-0.3305,-0.3247,-0.3347,-0.3311,-0.3228,-0.3217,-0.3206,-0.3158,-0.3142,-0.3341,-0.3342,-0.3342,0,-0.2303,-0.2368,-0.243,-0.2529,-0.2575,-0.2652,-0.2728,-0.2789,-0.2916,-0.292,-0.296,-0.3089,-0.3174,-0.3207,-0.3242,-0.3313,-0.3261,-0.3276,-0.3229,-0.3217,-0.3205,-0.3157,-0.3139,-0.3343,-0.3343,-0.3343,-0.3343,0,-0.2381,-0.2425,-0.247,-0.2594,-0.2664,-0.2737,-0.2831,-0.2889,-0.2944,-0.2969,-0.3033,-0.3133,-0.3162,-0.3232,-0.3286,-0.3259,-0.3251,-0.325,-0.319,-0.3195,-0.3148,-0.3129,-0.3346,-0.3346,-0.3345,-0.3344,0,0,-0.2349,-0.2491,-0.2502,-0.2535,-0.2699,-0.2747,-0.2835,-0.2892,-0.2884,-0.2994,-0.2978,-0.3112,-0.3107,-0.3137,-0.3201,-0.3167,-0.3108,-0.3181,-0.3176,-0.3101,-0.2932,-0.2868,-0.2841,-0.3087,-0.3082,-0.3079,-0.2948,0,-0.2388,-0.2512,-0.2597,-0.2669,-0.2721,-0.28,-0.2851,-0.2902,-0.2941,-0.2952,-0.2987,-0.3027,-0.3085,-0.3118,-0.308,-0.3121,-0.305,-0.3143,-0.2963,-0.2958,-0.2871,-0.2813,-0.2648,-0.2509,-0.2928,-0.2925,-0.2923,0,-0.2428,-0.2502,-0.259,-0.2642,-0.2678,-0.2735,-0.2763,-0.2826,-0.284,-0.2867,-0.2856,-0.2896,-0.2905,-0.2953,-0.2883,-0.2938,-0.2908,-0.2916,-0.291,-0.2804,-0.2854,-0.2565,-0.2457,-0.289,-0.2892,-0.2895,-0.2897,0,-0.233,-0.2459,-0.2505,-0.2545,-0.2664,-0.2683,-0.2728,-0.2766,-0.2788,-0.2794,-0.2797,-0.2775,-0.2795,-0.2733,-0.2774,-0.2814,-0.2676,-0.2726,-0.261,-0.2609,-0.2401,-0.2386,-0.2579,-0.2579,-0.2579,-0.258,-0.258,0,-0.2306,-0.2326,-0.2445,-0.2475,-0.2491,-0.2597,-0.26,-0.2634,-0.2676,-0.2668,-0.2723,-0.2711,-0.2734,-0.2693,-0.2695,-0.2586,-0.2582,-0.2551,-0.2538,-0.2419,-0.2408,-0.2683,-0.2697,-0.2575,-0.2576,-0.2577,-0.2578,0,-0.2188,-0.2275,-0.2317,-0.2427,-0.2448,-0.2455,-0.2543,-0.2533,-0.2588,-0.2586,-0.2598,-0.264,-0.2582,-0.2578,-0.2511,-0.248,-0.2407,-0.2353,-0.2239,-0.2212,-0.2418,-0.2436,-0.2194,-0.2189,-0.2186,-0.2183,-0.2181,0,-0.2141,-0.2157,-0.2259,-0.2273,-0.2327,-0.2358,-0.2377,-0.2467,-0.2477,-0.2533,-0.2521,-0.2496,-0.2441,-0.2324,-0.2255,-0.2154,-0.2262,-0.196,-0.199,-0.235,-0.2363,-0.2387,-0.2409,-0.1758,-0.1752,-0.1748,-0.1744,0,-0.2042,-0.2083,-0.2125,-0.2154,-0.2181,-0.2212,-0.2248,-0.2257,-0.2356,-0.2358,-0.2346,-0.2314,-0.2208,-0.2038,-0.1928,-0.1864,-0.1974,-0.1861,-0.2191,-0.1899,-0.1932,-0.1949,-0.1985,-0.1702,-0.1706,-0.1709,-0.1712,-0.1713,-0.1944,-0.1938,-0.1983,-0.1994,-0.203,-0.2036,-0.1995,-0.2059,-0.2057,-0.2041,-0.213,-0.2018,-0.1973,-0.1708,-0.1603,-0.1526,-0.1668,-0.162,-0.1636,-0.1657,-0.1647,-0.1673,-0.1395,-0.1397,-0.1399,-0.1401,-0.1403,0,-0.1778,-0.179,-0.181,-0.1809,-0.1782,-0.186,-0.1876,-0.1816,-0.1755,-0.1801,-0.1768,-0.1572,-0.1443,-0.14,-0.1213,-0.118,-0.1187,-0.1138,-0.1162,-0.1202,-0.1238,-0.1211,-0.0841,-0.0839,-0.0838,-0.0837,0,0,-0.1687,-0.1639,-0.1654,-0.1545,-0.155,-0.1458,-0.1434,-0.1395,-0.1385,-0.1318,-0.1276,-0.1376,-0.1366,-0.1117,-0.1045,-0.0916,-0.1052,-0.0863,-0.1311,-0.1379,-0.1414,-0.1507,-0.1508,0,0,0,0,0]},{"header":{"parameterUnit":"m.s-1","parameterCategory":2,"la1":30.2991,"la2":30.254,"lo1":-89.0895,"lo2":-89.0444,"dy":0.0017,"dx":0.0017,"nx":28,"ny":28,"refTime":"2023-10-18T21:00:00:Z","depth":"2","parameterNumber":3,"parameterNumberName":"V-component_of_CURRENTS"},"data":[0,0,0,0,0,0,0,0,0,0,0,0,0,0,0,0,0,0,0,0,0,0,0,0,0,0,0,0,0,0,0,0,0,0,0,0,0,0,0,0,0,0,0,0,0,0,0,0,0,0,0,0,0,0,0,0,0,0,-0.0564,-0.0564,0,-0.0497,-0.0496,-0.0495,-0.0414,-0.0414,-0.0413,-0.0412,-0.0186,-0.0181,-0.0176,0,0,0,0,0,0,0,0,0,0,0,0,0,-0.0572,-0.0572,-0.0565,-0.0564,-0.0564,-0.0497,-0.0496,-0.0494,-0.0414,-0.0413,-0.0413,-0.0412,-0.0188,-0.0182,-0.0176,0,0,0,0,0,0,0,0,0,0,0,0,0,-0.0538,-0.0572,-0.0565,-0.052,-0.0516,-0.0498,-0.0496,-0.0494,-0.0415,-0.0413,-0.0412,-0.0411,-0.019,-0.0183,-0.0175,-0.0147,0,0,-0.015,-0.0147,0,0,0,0,0,0,0,0,-0.054,-0.0537,-0.0527,-0.0523,-0.0518,-0.0468,-0.0416,-0.0372,-0.0415,-0.0447,-0.0412,-0.0411,-0.027,-0.0256,-0.024,-0.0137,-0.0127,-0.0149,-0.0145,-0.0141,-0.0139,0,0,0,0,0,0,0,-0.0542,-0.0539,-0.0532,-0.0527,-0.0522,-0.0486,-0.048,-0.0407,-0.0358,-0.0444,-0.044,-0.0441,-0.0266,-0.0248,-0.0233,-0.0124,-0.015,-0.0143,-0.0138,-0.0135,0.0054,0.0054,0,0,0,0,0,0,-0.0566,-0.0542,-0.0534,-0.0531,-0.0533,-0.0487,-0.048,-0.0481,-0.0362,-0.0346,-0.0442,-0.0438,-0.0262,-0.0243,-0.0225,-0.0141,-0.0141,-0.0134,-0.0129,0.0054,0.0054,0.0054,0,0,0,0,0,0,-0.0566,-0.0566,-0.0537,-0.0539,-0.0533,-0.0489,-0.049,-0.048,-0.0456,-0.0364,-0.0343,-0.0429,-0.026,-0.0236,-0.0158,-0.0133,-0.013,-0.0123,0.0054,0.0054,0.0054,-0.0,0,0,0,0,0,0,-0.0567,-0.0566,-0.0573,-0.0541,-0.0535,-0.0526,-0.0491,-0.048,-0.0462,-0.0455,-0.0345,-0.0324,-0.0258,-0.0171,-0.0151,-0.0122,-0.0117,0.0053,0.0054,0.0054,0.0001,-0.0002,-0.0005,0,0,0,0,0,-0.0567,-0.0583,-0.0573,-0.0572,-0.0545,-0.0527,-0.0519,-0.048,-0.0462,-0.0453,-0.0381,-0.0327,-0.0154,-0.0165,-0.0141,-0.0109,0.0053,0.0054,0.0054,0.0002,-0.0001,-0.0005,0,0,0,0,0,0,-0.0587,-0.0576,-0.0564,-0.0575,-0.0554,-0.0515,-0.051,-0.0486,-0.0426,-0.0407,-0.0323,-0.0296,-0.0214,-0.0164,-0.0179,-0.0056,-0.0041,-0.0036,-0.0089,-0.0091,-0.0094,-0.0099,-0.011,0,0,0,0,0,-0.0599,-0.0609,-0.0585,-0.0595,-0.0586,-0.0549,-0.0538,-0.0506,-0.0455,-0.0428,-0.0361,-0.0279,-0.0196,-0.0149,-0.0072,-0.0009,0.0035,0.0025,0.0022,0.0019,0.0031,0.0084,0.0086,0.0056,0.0056,0.0056,0,0,-0.0614,-0.0608,-0.0615,-0.06,-0.058,-0.0569,-0.0537,-0.0516,-0.0494,-0.041,-0.0358,-0.0283,-0.0182,-0.0106,-0.0065,-0.0059,0.0052,0.002,0.0017,0.003,0.0084,0.0087,0.009,0.0056,0.0056,0.0056,0,0,-0.0647,-0.0638,-0.0653,-0.0637,-0.0611,-0.0583,-0.0581,-0.0539,-0.0504,-0.0455,-0.0377,-0.0286,-0.0196,-0.01,-0.0043,-0.0016,0.0035,-0.0006,-0.0018,0.0033,0.0036,0.0039,0.01,0.0109,-0.0009,-0.0009,-0.0009,0,-0.0661,-0.0674,-0.0654,-0.0656,-0.0641,-0.0595,-0.0588,-0.0553,-0.0489,-0.0457,-0.0445,-0.0279,-0.0182,-0.0064,-0.0048,-0.0015,0.0004,-0.0013,0.0028,0.0032,0.0037,0.0099,0.011,-0.0012,-0.0011,-0.0011,-0.0011,0,-0.0699,-0.0702,-0.0708,-0.0694,-0.0672,-0.066,-0.061,-0.0578,-0.0539,-0.05,-0.0399,-0.028,-0.0185,-0.0134,-0.0075,0.0012,0.0014,0.0017,0.0033,0.0036,0.0102,0.0114,-0.0015,-0.0014,-0.0014,-0.0013,0,0,-0.0745,-0.0736,-0.0737,-0.0729,-0.0684,-0.0668,-0.063,-0.0577,-0.0551,-0.0481,-0.043,-0.0272,-0.0226,-0.0157,-0.0067,-0.0001,0.007,0.001,0.0013,0.0065,0.0169,0.0186,0.0202,0.0051,0.0053,0.0054,0.0204,0,-0.0775,-0.079,-0.0766,-0.076,-0.0757,-0.0695,-0.0665,-0.0606,-0.0556,-0.0501,-0.0371,-0.0287,-0.0234,-0.0173,-0.0106,0.0034,0.0097,0.0029,0.0165,0.0171,0.018,0.0215,0.0191,0.0322,0.0216,0.0218,0.022,0,-0.0815,-0.0817,-0.0822,-0.0785,-0.0775,-0.0761,-0.0693,-0.0657,-0.0567,-0.0524,-0.044,-0.0358,-0.0209,-0.0182,0.0018,-0.0046,0.0055,0.0152,0.0159,0.0205,0.021,0.0304,0.0349,0.024,0.0239,0.0237,0.0236,0,-0.0859,-0.0849,-0.0852,-0.0843,-0.0799,-0.0778,-0.0743,-0.067,-0.0632,-0.0536,-0.05,-0.0363,-0.0266,-0.0143,0.0043,0.0022,0.0245,0.0243,0.0357,0.036,0.0389,0.039,0.0372,0.0372,0.0372,0.0371,0.0371,0,-0.0898,-0.09,-0.0879,-0.0883,-0.0873,-0.082,-0.0794,-0.0746,-0.0668,-0.0622,-0.0521,-0.0442,-0.026,-0.0118,0.0028,0.023,0.0226,0.0377,0.0404,0.0369,0.0367,0.0331,0.0324,0.0377,0.0375,0.0374,0.0373,0,-0.0942,-0.0935,-0.0937,-0.0906,-0.0901,-0.089,-0.0838,-0.082,-0.0744,-0.0676,-0.0641,-0.0486,-0.0299,-0.0116,0.0127,0.0228,0.0421,0.0489,0.0443,0.0461,0.0507,0.0496,0.0641,0.0643,0.0645,0.0646,0.0648,0,-0.0966,-0.0978,-0.0966,-0.0978,-0.0968,-0.0951,-0.0944,-0.0869,-0.0841,-0.0695,-0.0659,-0.0469,-0.0325,0.0019,0.0248,0.05,0.0488,0.061,0.0586,0.0526,0.0538,0.0524,0.0511,0.0611,0.0611,0.0612,0.0612,0,-0.1003,-0.1,-0.1,-0.1034,-0.1041,-0.1035,-0.1012,-0.0996,-0.0894,-0.0824,-0.0677,-0.0542,-0.0205,0.0078,0.0382,0.0518,0.0562,0.0631,0.0598,0.053,0.0505,0.0513,0.05,0.0618,0.0617,0.0617,0.0617,0.0616,-0.1028,-0.1042,-0.1059,-0.1085,-0.11,-0.1112,-0.111,-0.1066,-0.1008,-0.0893,-0.0718,-0.0503,-0.0194,0.0238,0.0476,0.0668,0.0661,0.0704,0.0699,0.0694,0.0648,0.0625,0.0754,0.0755,0.0755,0.0755,0.0755,0,-0.1074,-0.1092,-0.1116,-0.1155,-0.1189,-0.1174,-0.1154,-0.1129,-0.1072,-0.0924,-0.0765,-0.0403,-0.0067,0.023,0.0563,0.077,0.0744,0.0778,0.0718,0.0712,0.0706,0.0658,0.0768,0.0769,0.077,0.077,0,0,-0.1105,-0.1147,-0.1158,-0.1231,-0.1257,-0.128,-0.1267,-0.1198,-0.1079,-0.093,-0.076,-0.0501,-0.0074,0.0168,0.0444,0.0616,0.0594,0.0612,0.058,0.047,0.0461,0.0644,0.056,0,0,0,0,0]}],[{"header":{"parameterUnit":"m.s-1","parameterCategory":2,"la1":30.2991,"la2":30.254,"lo1":-89.0895,"lo2":-89.0444,"dy":0.0017,"dx":0.0017,"nx":28,"ny":28,"refTime":"2023-10-18T21:00:00:Z","depth":"4","parameterNumber":2,"parameterNumberName":"U-component_of_CURRENTS"},"data":[0,0,0,0,0,0,0,0,0,0,0,0,0,0,0,0,0,0,0,0,0,0,0,0,0,0,0,0,0,0,0,0,0,0,0,0,0,0,0,0,0,0,0,0,0,0,0,0,0,0,0,0,0,0,0,0,0,0,-0.1514,-0.1515,0,-0.1607,-0.1609,-0.161,-0.1663,-0.1663,-0.1662,-0.1662,-0.1723,-0.1725,-0.1727,0,0,0,0,0,0,0,0,0,0,0,0,0,-0.143,-0.1432,-0.1514,-0.1515,-0.1516,-0.1607,-0.1609,-0.1611,-0.1663,-0.1663,-0.1662,-0.1662,-0.1722,-0.1725,-0.1727,0,0,0,0,0,0,0,0,0,0,0,0,0,-0.1495,-0.1432,-0.1514,-0.1549,-0.1552,-0.1607,-0.1609,-0.1611,-0.1663,-0.1663,-0.1662,-0.1662,-0.1722,-0.1724,-0.1727,-0.1755,0,0,-0.1736,-0.1738,0,0,0,0,0,0,0,0,-0.1491,-0.1498,-0.1543,-0.1546,-0.155,-0.1618,-0.1601,-0.1656,-0.1663,-0.1627,-0.1662,-0.1662,-0.1682,-0.1688,-0.1715,-0.1758,-0.1761,-0.1736,-0.1738,-0.174,-0.174,0,0,0,0,0,0,0,-0.1486,-0.1495,-0.1557,-0.1544,-0.1548,-0.1575,-0.1584,-0.1613,-0.166,-0.163,-0.1633,-0.1634,-0.1684,-0.1712,-0.1717,-0.1762,-0.1736,-0.1739,-0.1741,-0.1742,-0.1907,-0.1909,0,0,0,0,0,0,-0.1462,-0.1491,-0.1554,-0.1559,-0.1512,-0.1577,-0.1587,-0.1602,-0.166,-0.1668,-0.1635,-0.1636,-0.1707,-0.1713,-0.1719,-0.1792,-0.1739,-0.1742,-0.1744,-0.1904,-0.1908,-0.191,0,0,0,0,0,0,-0.146,-0.1467,-0.155,-0.1522,-0.1533,-0.1578,-0.1595,-0.1604,-0.1652,-0.1663,-0.1671,-0.1674,-0.1707,-0.1715,-0.1766,-0.1793,-0.1744,-0.1746,-0.1901,-0.1905,-0.1909,-0.1915,0,0,0,0,0,0,-0.1457,-0.1466,-0.1489,-0.152,-0.1534,-0.1594,-0.1595,-0.1606,-0.1649,-0.1653,-0.1699,-0.1703,-0.1707,-0.1762,-0.1769,-0.1796,-0.1748,-0.1898,-0.1903,-0.1908,-0.1912,-0.1919,-0.1925,0,0,0,0,0,-0.1454,-0.148,-0.149,-0.1498,-0.1557,-0.1595,-0.1606,-0.1639,-0.1652,-0.1681,-0.1713,-0.1703,-0.1799,-0.1766,-0.1774,-0.1803,-0.1895,-0.1902,-0.1907,-0.1909,-0.1918,-0.1925,0,0,0,0,0,0,-0.1455,-0.1488,-0.15,-0.1535,-0.1566,-0.1602,-0.1635,-0.1655,-0.1708,-0.1718,-0.1731,-0.1738,-0.1795,-0.181,-0.1773,-0.1871,-0.1849,-0.1856,-0.1847,-0.1856,-0.1862,-0.1839,-0.1751,0,0,0,0,0,-0.1464,-0.1494,-0.1523,-0.1553,-0.1572,-0.1611,-0.1637,-0.1658,-0.1695,-0.172,-0.1752,-0.1792,-0.1826,-0.1847,-0.1882,-0.1932,-0.1925,-0.1963,-0.1969,-0.1974,-0.1966,-0.199,-0.1997,-0.193,-0.193,-0.193,0,0,-0.1468,-0.1492,-0.1509,-0.1556,-0.1588,-0.1628,-0.1628,-0.1674,-0.1709,-0.1716,-0.179,-0.1816,-0.1847,-0.1901,-0.1929,-0.1915,-0.1991,-0.1982,-0.1985,-0.1974,-0.1997,-0.2003,-0.2008,-0.1934,-0.1933,-0.1933,0,0,-0.1489,-0.152,-0.1554,-0.1588,-0.1634,-0.1657,-0.1673,-0.1725,-0.1755,-0.1817,-0.1832,-0.186,-0.194,-0.1945,-0.196,-0.2028,-0.2026,-0.207,-0.208,-0.2105,-0.2109,-0.2113,-0.2101,-0.2103,-0.2072,-0.2072,-0.2072,0,-0.1496,-0.1538,-0.157,-0.1614,-0.1637,-0.1672,-0.1707,-0.175,-0.1813,-0.1829,-0.1844,-0.1937,-0.1947,-0.1988,-0.2013,-0.2034,-0.2055,-0.2036,-0.2108,-0.2112,-0.2115,-0.2102,-0.2105,-0.2073,-0.2073,-0.2073,-0.2073,0,-0.1535,-0.1581,-0.1605,-0.1669,-0.1702,-0.1738,-0.1782,-0.1822,-0.1857,-0.1889,-0.1949,-0.1974,-0.2018,-0.2038,-0.2043,-0.2089,-0.2097,-0.2108,-0.2072,-0.2121,-0.2106,-0.2108,-0.2075,-0.2074,-0.2074,-0.2074,0,0,-0.151,-0.1612,-0.1623,-0.1657,-0.1728,-0.1755,-0.1808,-0.185,-0.1892,-0.1947,-0.1996,-0.2031,-0.2049,-0.2068,-0.2086,-0.2103,-0.2126,-0.2129,-0.2129,-0.2088,-0.218,-0.2016,-0.2002,-0.2174,-0.2175,-0.2175,-0.2153,0,-0.1527,-0.1606,-0.1653,-0.1722,-0.1756,-0.1798,-0.1848,-0.1893,-0.1941,-0.2007,-0.2018,-0.2086,-0.2066,-0.2102,-0.2112,-0.2141,-0.2139,-0.213,-0.2163,-0.2162,-0.1987,-0.2001,-0.2178,-0.2155,-0.2155,-0.2155,-0.2156,0,-0.1537,-0.1587,-0.1658,-0.1737,-0.1759,-0.1813,-0.1873,-0.1926,-0.2004,-0.2043,-0.2088,-0.2132,-0.2158,-0.2152,-0.217,-0.2185,-0.2177,-0.218,-0.218,-0.2021,-0.2002,-0.2103,-0.216,-0.216,-0.2159,-0.2159,-0.2159,0,-0.148,-0.1582,-0.1634,-0.1666,-0.177,-0.1805,-0.1857,-0.1934,-0.1983,-0.208,-0.2126,-0.2175,-0.2207,-0.2222,-0.2198,-0.2218,-0.2215,-0.2236,-0.2064,-0.2052,-0.2203,-0.2199,-0.2233,-0.2233,-0.2234,-0.2234,-0.2234,0,-0.1456,-0.1502,-0.1623,-0.1657,-0.172,-0.1795,-0.1873,-0.1927,-0.2025,-0.2076,-0.2152,-0.218,-0.2236,-0.2238,-0.2224,-0.2124,-0.2221,-0.2047,-0.2033,-0.2208,-0.2205,-0.2203,-0.22,-0.2233,-0.2233,-0.2233,-0.2233,0,-0.1385,-0.1471,-0.1543,-0.1664,-0.1704,-0.1752,-0.1881,-0.1928,-0.2027,-0.2095,-0.2129,-0.2201,-0.2178,-0.2184,-0.219,-0.2118,-0.2068,-0.2006,-0.2161,-0.2159,-0.1888,-0.1887,-0.1826,-0.182,-0.1815,-0.1811,-0.1807,0,-0.1356,-0.1387,-0.1535,-0.1583,-0.1649,-0.1738,-0.1791,-0.1913,-0.1955,-0.2071,-0.2081,-0.2112,-0.2127,-0.1979,-0.2014,-0.1941,-0.1915,-0.1886,-0.1903,-0.1852,-0.1846,-0.1853,-0.1858,-0.1799,-0.1798,-0.1796,-0.1795,0,-0.1282,-0.1354,-0.1416,-0.151,-0.159,-0.166,-0.1743,-0.1768,-0.1883,-0.2002,-0.1968,-0.1946,-0.1901,-0.1865,-0.18,-0.1761,-0.1915,-0.1833,-0.1844,-0.1859,-0.1819,-0.1819,-0.183,-0.1777,-0.178,-0.1782,-0.1783,0,-0.1227,-0.1249,-0.1336,-0.1401,-0.1496,-0.1524,-0.1602,-0.1631,-0.1686,-0.1815,-0.1796,-0.1814,-0.1878,-0.1769,-0.1722,-0.165,-0.1636,-0.1605,-0.1628,-0.1648,-0.1597,-0.152,-0.1356,0,0,0,0,0,-0.1148,-0.1149,-0.1208,-0.127,-0.1356,-0.1397,-0.1527,-0.1605,-0.173,-0.1657,-0.1719,-0.1665,-0.1589,-0.1608,-0.149,-0.1635,-0.164,-0.1495,-0.1618,-0.1679,-0.1699,-0.1653,0,0,0,0,0,0,-0.1096,-0.1138,-0.1154,-0.1124,-0.1134,-0.12,-0.1277,-0.1379,-0.135,-0.1485,-0.1442,-0.1548,-0.1485,-0.1593,-0.1439,-0.1443,-0.1487,-0.1521,-0.1517,-0.1667,-0.1686,-0.1702,-0.1661,0,0,0,0,0]},{"header":{"parameterUnit":"m.s-1","parameterCategory":2,"la1":30.2991,"la2":30.254,"lo1":-89.0895,"lo2":-89.0444,"dy":0.0017,"dx":0.0017,"nx":28,"ny":28,"refTime":"2023-10-18T21:00:00:Z","depth":"4","parameterNumber":3,"parameterNumberName":"V-component_of_CURRENTS"},"data":[0,0,0,0,0,0,0,0,0,0,0,0,0,0,0,0,0,0,0,0,0,0,0,0,0,0,0,0,0,0,0,0,0,0,0,0,0,0,0,0,0,0,0,0,0,0,0,0,0,0,0,0,0,0,0,0,0,0,-0.0436,-0.0436,0,-0.0416,-0.0416,-0.0416,-0.0378,-0.0377,-0.0376,-0.0376,-0.0328,-0.0328,-0.0327,0,0,0,0,0,0,0,0,0,0,0,0,0,-0.0431,-0.0432,-0.0436,-0.0436,-0.0435,-0.0416,-0.0416,-0.0416,-0.0378,-0.0377,-0.0376,-0.0375,-0.0328,-0.0328,-0.0327,0,0,0,0,0,0,0,0,0,0,0,0,0,-0.0426,-0.0432,-0.0436,-0.0414,-0.0411,-0.0416,-0.0416,-0.0416,-0.0378,-0.0377,-0.0376,-0.0375,-0.0328,-0.0328,-0.0327,-0.0347,0,0,-0.0325,-0.0324,0,0,0,0,0,0,0,0,-0.0426,-0.0426,-0.0417,-0.0415,-0.0413,-0.0397,-0.0397,-0.0391,-0.0379,-0.0392,-0.0376,-0.0374,-0.0349,-0.0346,-0.0347,-0.0345,-0.0343,-0.0325,-0.0324,-0.0324,-0.0324,0,0,0,0,0,0,0,-0.0426,-0.0426,-0.0429,-0.0417,-0.0414,-0.0401,-0.0399,-0.0396,-0.0378,-0.0391,-0.0388,-0.0384,-0.0347,-0.0348,-0.0346,-0.0342,-0.0325,-0.0324,-0.0324,-0.0323,-0.0328,-0.0329,0,0,0,0,0,0,-0.0429,-0.0427,-0.043,-0.0428,-0.0415,-0.0402,-0.04,-0.0404,-0.0379,-0.0373,-0.0385,-0.0383,-0.035,-0.0347,-0.0344,-0.0355,-0.0324,-0.0323,-0.0323,-0.0328,-0.0329,-0.0329,0,0,0,0,0,0,-0.0429,-0.043,-0.0431,-0.0426,-0.0425,-0.0403,-0.0409,-0.0405,-0.0404,-0.0374,-0.0369,-0.0389,-0.0349,-0.0345,-0.0343,-0.0353,-0.0323,-0.0322,-0.0327,-0.0328,-0.0329,-0.0384,0,0,0,0,0,0,-0.0429,-0.043,-0.0439,-0.0426,-0.0425,-0.0442,-0.041,-0.0405,-0.0403,-0.04,-0.0376,-0.037,-0.0348,-0.0345,-0.0343,-0.0351,-0.0322,-0.0326,-0.0328,-0.0329,-0.0381,-0.0387,-0.0391,0,0,0,0,0,-0.0429,-0.0443,-0.044,-0.044,-0.0437,-0.0443,-0.0442,-0.0422,-0.0405,-0.0415,-0.0394,-0.0371,-0.035,-0.0345,-0.0342,-0.0351,-0.0326,-0.0327,-0.0329,-0.0379,-0.0386,-0.0391,0,0,0,0,0,0,-0.0444,-0.0441,-0.0436,-0.0449,-0.0451,-0.0436,-0.0441,-0.043,-0.0423,-0.0414,-0.0385,-0.0379,-0.0384,-0.0361,-0.0357,-0.0355,-0.0332,-0.0333,-0.0371,-0.0377,-0.0382,-0.0356,-0.0321,0,0,0,0,0,-0.0454,-0.0466,-0.046,-0.0473,-0.0473,-0.046,-0.046,-0.0449,-0.0438,-0.0434,-0.042,-0.04,-0.0389,-0.0377,-0.0372,-0.0372,-0.0306,-0.0373,-0.0378,-0.0383,-0.036,-0.0265,-0.0258,-0.0334,-0.0334,-0.0334,0,0,-0.0466,-0.0464,-0.0472,-0.0478,-0.0474,-0.0482,-0.0458,-0.0462,-0.0469,-0.0431,-0.044,-0.0427,-0.0397,-0.0399,-0.0397,-0.0377,-0.0332,-0.0384,-0.0388,-0.0362,-0.0265,-0.0257,-0.025,-0.0334,-0.0334,-0.0334,0,0,-0.0494,-0.0493,-0.0511,-0.0515,-0.0514,-0.0503,-0.0508,-0.0503,-0.05,-0.0511,-0.0482,-0.0465,-0.0464,-0.0431,-0.0416,-0.0442,-0.0371,-0.0449,-0.0441,-0.035,-0.0342,-0.0334,-0.026,-0.0245,-0.0439,-0.044,-0.044,0,-0.0507,-0.0526,-0.0519,-0.0535,-0.0536,-0.0515,-0.0531,-0.053,-0.0528,-0.0521,-0.0521,-0.0481,-0.0472,-0.0433,-0.0446,-0.045,-0.0387,-0.0424,-0.0353,-0.0344,-0.0335,-0.026,-0.0243,-0.0442,-0.0442,-0.0442,-0.0441,0,-0.0546,-0.056,-0.057,-0.058,-0.0585,-0.0594,-0.0587,-0.0591,-0.0583,-0.0571,-0.0551,-0.0523,-0.0484,-0.0491,-0.0479,-0.0416,-0.0391,-0.038,-0.0335,-0.033,-0.0253,-0.0234,-0.0446,-0.0445,-0.0445,-0.0444,0,0,-0.0572,-0.0593,-0.0597,-0.0604,-0.0606,-0.061,-0.062,-0.0613,-0.06,-0.0592,-0.056,-0.0547,-0.051,-0.0487,-0.0459,-0.0385,-0.0293,-0.0356,-0.035,-0.0275,-0.009,-0.0137,-0.012,-0.0262,-0.0258,-0.0256,-0.0068,0,-0.0601,-0.0638,-0.0638,-0.0663,-0.0675,-0.0657,-0.0664,-0.0654,-0.0636,-0.0604,-0.0549,-0.0519,-0.0514,-0.0486,-0.0412,-0.0326,-0.0241,-0.0344,-0.011,-0.0103,-0.0139,-0.0099,-0.0245,-0.0053,-0.0049,-0.0045,-0.0043,0,-0.0636,-0.0652,-0.069,-0.0692,-0.0694,-0.0707,-0.0687,-0.0688,-0.0638,-0.0619,-0.0556,-0.0511,-0.0416,-0.0407,-0.0217,-0.028,-0.0183,-0.0109,-0.0099,-0.0102,-0.0114,-0.0053,-0.0007,-0.001,-0.0013,-0.0015,-0.0017,0,-0.0655,-0.068,-0.0708,-0.0714,-0.0721,-0.0728,-0.0723,-0.0696,-0.0684,-0.0612,-0.0578,-0.0465,-0.0396,-0.0254,-0.0135,-0.0154,0.0085,0.008,0.0139,0.0136,0.0148,0.0138,0.0247,0.0247,0.0246,0.0246,0.0245,0,-0.0677,-0.0697,-0.0721,-0.0738,-0.0757,-0.075,-0.0751,-0.0733,-0.0682,-0.065,-0.0577,-0.0508,-0.0348,-0.0213,-0.0098,0.0071,0.0122,0.0165,0.0193,0.0114,0.0099,0.0161,0.0149,0.0253,0.0251,0.025,0.0249,0,-0.0694,-0.0714,-0.0744,-0.0763,-0.0774,-0.0786,-0.0783,-0.0773,-0.0723,-0.0668,-0.064,-0.0509,-0.0338,-0.0187,0.0047,0.0112,0.0277,0.0327,0.023,0.0245,0.0265,0.0247,0.0437,0.0437,0.0437,0.0438,0.0438,0,-0.0706,-0.0727,-0.077,-0.0797,-0.0813,-0.0829,-0.0842,-0.0805,-0.0784,-0.0668,-0.0632,-0.0465,-0.037,-0.0069,0.0077,0.031,0.0324,0.0406,0.0343,0.0282,0.0291,0.0273,0.0255,0.0438,0.0438,0.0438,0.0438,0,-0.0721,-0.0743,-0.077,-0.0832,-0.0864,-0.0881,-0.0886,-0.0865,-0.0799,-0.0751,-0.0602,-0.0451,-0.026,-0.0061,0.0108,0.0268,0.0347,0.0408,0.0408,0.035,0.0285,0.0289,0.0272,0.0438,0.0438,0.0438,0.0438,0,-0.0733,-0.0759,-0.0809,-0.0854,-0.0903,-0.0923,-0.0914,-0.0863,-0.0821,-0.0686,-0.0632,-0.0429,-0.0301,-0.0079,0.0081,0.0222,0.0256,0.0284,0.0292,0.0293,0.0167,0.0058,0.0192,0,0,0,0,0,-0.0742,-0.0781,-0.0829,-0.0885,-0.0933,-0.0958,-0.0944,-0.0917,-0.0843,-0.0743,-0.0682,-0.0504,-0.0248,-0.0128,0.0011,0.0063,0.0258,0.0226,0.0288,0.044,0.044,0.0308,0,0,0,0,0,0,-0.0756,-0.0809,-0.0831,-0.0902,-0.0945,-0.0988,-0.0978,-0.0925,-0.085,-0.0756,-0.0611,-0.0507,-0.0255,-0.0337,-0.0001,0.0045,0.0096,0.0357,0.0359,0.0441,0.044,0.044,0.0304,0,0,0,0,0]}]]